Location: Bacharowice
(49.9333°N, 19.5833°E)
Time: 07:33:28
(UTC+00:00)

Cosmos 2344 - Pass Details

Date: 26 September 2021
Orbit: 1235 x 3007 km, 63.3° (Epoch: 19 October)

Event Time Altitude Azimuth Distance (km) Brightness Sun altitude
Rises 19:00:33 0° 295° (WNW) 4,216 7.7 -24.0°
Reaches altitude 10° 19:03:28 10° 305° (NW) 3,321 6.8 -24.5°
Maximum altitude 19:10:39 35° 11° (N) 2,216 4.9 -25.5°
Enters shadow 19:17:22 17° 67° (ENE) 3,514 5.5 -26.4°
